SCP
1 1 1 1 1 2 2 2 2 2 2 2 2 2 2 2 2 2 2 2 1 1 1 1 1 1 1 1 1 1 1 0 0 1 1 0 0 1 1 1 1 1 1
1 1 0 0 1 1 2 2 2 2 2 2 2 2 2 2 2 2 2 1 1 1 1 1 1 1 1 1 1 1 1 0 0 1 1 1 1 1 1 1 1 1 1
0 0 0 0 1 1 1 1 1 1 2 2 2 2 2 2 2 2 1 1 1 1 1 1 1 1 1 1 1 1 1 1 0 0 1 1 1 1 1 1 1 1 1
0 0 0 0 0 0 0 0 0 1 1 2 2 3 2 2 2 2 1 1 1 1 1 1 1 1 1 1 2 1 1 1 1 0 1 1 1 1 1 1 1 1 1
0 0 0 0 0 0 0 0 0 0 1 1 2 3 3 3 2 2 2 2 2 2 2 2 1 1 1 1 1 1 1 1 1 1 1 1 1 1 1 1 1 1 1
0 0 0 0 0 0 0 0 0 0 0 0 1 2 3 3 3 3 3 3 2 2 2 2 2 2 1 1 1 1 1 1 1 0 0 0 0 0 0 1 0 0 0
0 0 0 0 0 0 0 0 0 0 0 0 0 1 2 3 4 4 4 4 3 3 2 2 1 1 1 1 0 0 0 1 0 0 0 0 0 0 0 0 0 0 0
0 0 0 0 0 0 0 0 0 0 0 0 0 0 1 3 4 4 5 4 3 2 2 2 1 1 1 0 0 0 0 0 0 0 0 0 0 0 0 0 0 0 0
0 0 0 0 0 0 0 0 0 0 0 0 0 0 1 2 4 5 5 4 2 2 1 1 1 1 1 0 0 0 0 0 0 0 0 0 0 0 0 0 0 0 0
0 0 0 0 0 0 0 0 0 0 0 0 0 0 1 3 4 4 3 2 1 1 1 1 1 1 1 0 0 0 0 0 0 0 0 0 0 0 0 0 0 0 0
0 0 0 0 0 0 0 0 0 0 0 0 0 1 2 3 3 3 2 1 0 0 1 1 1 1 1 0 0 0 0 0 0 0 0 0 0 0 0 0 0 0 0
0 0 0 0 0 0 0 0 0 0 0 0 1 2 2 2 2 1 0 0 0 0 1 1 1 1 0 0 0 0 0 0 0 0 0 0 0 0 0 0 0 0 0
0 0 0 0 0 0 0 0 0 0 0 1 1 1 1 1 0 0 0 0 0 0 1 1 1 0 0 0 0 0 0 0 0 0 0 0 0 0 0 0 0 0 0
0 0 0 0 0 0 0 0 0 0 0 0 1 0 0 0 0 0 0 0 0 1 1 1 0 0 0 0 0 0 0 0 0 0 0 0 0 0 0 0 0 0 0
0 0 0 0 0 0 0 0 0 0 0 0 0 0 0 0 0 0 0 0 1 1 1 0 0 0 0 0 0 0 0 0 0 0 0 0 0 0 0 0 0 0 0
0 0 0 0 0 0 0 0 0 0 0 0 0 0 0 0 0 0 0 0 1 1 1 0 0 0 0 0 0 0 0 0 0 0 0 0 0 0 0 0 0 0 0
0 0 0 0 0 0 0 0 0 0 0 0 0 0 0 0 0 0 0 0 0 0 0 0 0 0 0 0 0 0 0 0 0 0 0 0 0 0 0 0 0 0 0
0 0 0 0 0 0 0 0 0 0 0 0 0 0 0 0 0 0 0 0 0 0 0 0 0 0 0 0 0 0 0 0 0 0 0 0 0 0 0 0 0 0 0
0 0 0 0 0 0 0 0 0 0 0 0 0 0 0 0 0 0 0 0 0 0 0 0 0 0 0 0 0 0 0 0 0 0 0 0 0 0 0 0 0 0 0
0 0 0 0 0 0 0 0 0 0 0 0 0 0 0 0 0 0 0 0 0 0 0 0 0 0 0 0 0 0 0 0 0 0 0 0 0 0 0 0 0 0 0
0 0 0 0 0 0 0 0 0 0 0 0 0 0 0 0 0 0 0 0 0 0 0 0 0 0 0 0 0 0 0 0 0 0 0 0 0 0 0 0 0 0 0
0 0 0 0 0 0 0 0 0 0 0 0 0 0 0 0 0 0 0 0 0 0 0 0 0 0 0 0 0 0 0 0 0 0 0 0 0 0 0 0 0 0 0
0 0 0 0 0 0 0 0 0 0 0 0 0 0 0 0 0 0 0 0 0 0 0 0 0 0 0 0 0 0 0 0 0 0 0 0 0 0 0 0 0 0 0
0 0 0 0 0 0 0 0 0 0 0 0 0 0 0 0 0 0 0 0 0 0 0 0 0 0 0 0 0 0 0 0 0 0 0 0 0 0 0 0 0 0 0
0 0 0 0 0 0 0 0 0 0 0 0 0 0 0 0 0 0 0 0 0 0 0 0 0 0 0 0 0 0 0 0 0 0 0 0 0 0 0 0 0 0 0
0 0 0 0 0 0 0 0 0 0 0 0 0 0 0 0 0 0 0 0 0 0 0 0 0 0 0 0 0 0 0 0 0 0 0 0 0 0 0 0 0 0 0
Wind_Speed
4 2 1 1 1 1 1 1 1 1 1 0 1 1 1 1 1 1 1 1 2 2 2 2 2 2 3 3 3 3 3 3 2 3 3 3 3 3 3 3 3 3 3
5 3 2 2 1 1 1 1 0 0 1 1 1 1 1 1 1 1 1 1 2 2 2 2 2 3 2 3 3 3 3 2 2 2 3 3 3 2 3 3 3 3 3
6 5 3 2 1 1 0 0 0 0 1 1 1 1 0 1 0 1 1 1 2 2 2 3 3 3 2 3 3 4 5 3 3 3 2 3 3 2 2 3 3 3 3
6 5 4 3 2 1 0 0 0 0 0 1 1 1 1 1 1 1 1 2 1 2 2 2 3 3 3 3 4 4 4 5 4 3 3 4 2 3 2 2 3 3 4
5 5 4 3 2 1 0 0 0 0 0 1 1 1 2 1 1 1 1 2 1 2 2 3 3 3 3 4 4 4 5 4 5 4 3 4 3 4 4 4 3 3 4
4 3 3 2 1 1 0 0 1 1 1 1 1 1 1 1 1 1 2 2 1 2 2 3 3 3 3 4 4 4 6 5 5 4 4 4 3 4 4 5 5 4 4
3 3 2 2 1 1 1 0 0 0 1 2 2 2 2 2 3 2 2 2 2 2 2 3 3 3 4 4 4 4 5 5 5 5 4 4 4 4 4 5 5 5 4
3 2 1 1 1 1 1 1 1 1 1 1 2 2 1 2 2 3 2 2 2 3 3 3 3 4 4 4 4 3 4 4 4 4 5 4 4 4 4 4 4 5 5
1 1 1 1 1 1 1 1 1 1 1 1 2 2 2 2 3 3 3 2 2 3 4 4 3 3 4 4 4 4 4 4 4 4 5 4 4 4 4 4 5 5 6
1 1 1 1 1 1 1 1 1 2 2 2 2 2 2 2 3 3 3 3 3 3 4 4 4 4 4 4 4 4 4 5 5 4 5 5 4 4 4 5 5 6 6
1 1 1 1 1 0 0 1 1 2 2 2 2 2 2 2 3 2 3 3 3 3 4 4 4 4 4 4 4 4 5 5 6 5 5 6 6 5 4 4 5 5 6
1 1 1 0 1 1 1 1 1 2 2 2 2 2 2 2 2 3 3 3 3 3 4 4 4 4 4 4 4 5 5 5 6 5 5 6 5 6 5 5 6 6 6
1 1 1 0 1 1 1 1 2 2 2 2 2 2 2 3 3 3 3 3 4 3 3 3 3 4 4 4 4 5 5 5 5 5 5 6 6 7 5 6 6 5 5
1 2 2 1 1 1 1 2 2 2 2 2 2 2 3 3 3 3 3 3 3 3 3 3 3 4 4 5 4 4 5 4 4 5 5 5 6 6 6 5 6 5 5
2 2 2 2 2 2 2 2 2 2 2 2 2 2 3 3 3 3 3 4 3 3 3 3 3 4 4 4 4 4 4 5 5 5 5 5 6 6 6 5 5 5 5
3 3 3 3 3 2 2 2 2 2 2 2 2 2 2 3 3 3 3 3 3 3 3 4 4 4 3 5 6 6 5 5 5 5 5 5 6 6 8 8 8 7 6
4 4 3 3 3 3 2 2 2 2 2 2 2 3 3 3 3 3 3 3 3 3 3 4 4 4 4 6 6 7 5 5 5 5 5 4 4 6 6 7 8 8 9
4 4 4 3 3 2 2 2 2 2 2 2 3 3 3 3 3 3 3 3 3 3 3 4 4 4 4 5 6 7 5 4 5 5 5 5 5 5 6 6 6 6 6
4 4 3 3 3 2 2 2 2 2 2 3 3 3 3 3 3 3 3 3 3 3 3 4 4 4 4 5 6 6 4 3 4 4 4 5 5 7 7 6 6 6 6
2 2 2 2 2 2 2 2 3 3 3 3 3 3 3 4 4 4 4 3 3 3 3 4 4 4 4 5 6 6 3 4 4 4 4 5 6 7 7 6 6 7 6
2 2 2 2 2 2 2 3 3 4 3 3 3 3 3 4 4 4 3 3 3 3 3 4 4 4 4 5 5 6 4 4 4 4 4 4 6 7 7 7 6 7 7
2 2 2 2 2 2 3 3 4 3 2 3 3 3 3 3 3 3 3 3 3 3 3 3 4 3 3 4 5 6 6 6 4 4 4 4 7 7 7 6 5 7 7
3 2 2 3 2 2 3 4 3 2 2 2 3 3 3 3 3 3 3 3 3 3 3 3 3 3 3 3 5 6 6 7 5 4 6 7 7 7 5 5 6 5 4
3 3 3 3 3 2 3 3 3 2 2 3 3 3 3 3 3 3 3 3 3 3 3 3 3 4 3 3 3 3 3 4 4 4 5 6 6 5 5 5 4 3 3
3 3 3 3 4 3 3 3 2 2 2 3 3 3 3 3 3 3 3 4 4 4 4 4 4 4 4 4 6 5 4 3 3 4 4 3 3 3 3 3 3 3 3
3 3 3 4 4 3 3 3 2 2 3 3 3 2 2 2 3 3 3 4 5 6 7 7 7 5 6 8 8 7 7 6 6 5 3 3 3 3 3 3 4 3 3
Wind_Direction
212 191 185 158 131 98 76 57 40 20 354 318 308 273 260 263 246 230 253 245 242 236 232 239 239 236 230 231 236 241 253 258 266 260 257 247 246 247 250 249 246 239 241
207 201 200 188 170 136 101 75 32 358 328 318 315 290 272 271 280 274 248 247 245 247 239 232 236 238 239 235 234 236 239 244 239 256 264 260 225 218 246 251 249 247 238
212 209 206 200 173 147 157 201 55 311 326 342 334 302 219 217 242 286 276 268 259 243 253 248 241 238 234 235 237 233 232 235 231 244 256 258 259 283 224 243 245 247 248
213 209 207 205 204 200 170 216 179 133 338 315 284 280 258 254 271 278 289 298 288 266 252 253 247 242 235 235 238 236 239 236 232 230 243 266 287 267 264 230 239 255 260
213 211 209 204 208 180 127 79 59 82 125 262 264 266 274 278 276 281 291 311 309 302 279 260 255 251 246 241 242 242 242 236 234 231 233 242 249 251 257 262 256 254 252
210 209 207 200 190 159 107 50 53 16 346 301 281 283 281 278 263 274 287 301 311 302 300 287 267 258 254 246 242 242 241 239 239 235 231 237 235 233 242 257 264 268 267
208 203 203 202 198 186 174 222 206 319 335 318 297 292 278 268 260 263 266 288 299 294 294 298 283 270 260 255 248 241 241 240 240 237 238 243 251 252 247 252 264 271 274
200 204 215 223 215 212 213 231 250 284 298 305 311 311 294 283 282 276 274 274 282 293 297 289 286 283 272 260 249 244 242 240 240 243 244 245 249 250 244 244 254 268 265
214 219 221 234 242 226 239 247 254 274 294 304 303 302 313 300 291 287 279 278 284 294 296 291 284 279 277 267 255 247 247 244 239 241 243 244 246 248 252 248 246 251 264
273 267 255 266 283 277 260 264 268 277 299 313 313 304 296 289 288 292 295 295 294 291 292 289 288 287 279 272 260 253 254 254 251 244 245 249 247 242 243 247 247 248 254
271 265 295 316 326 312 278 282 290 295 310 319 313 306 300 297 296 294 296 300 302 300 293 292 290 289 287 278 267 260 257 253 253 249 246 251 255 249 243 246 246 246 246
296 276 285 292 294 296 305 308 302 300 306 312 307 310 309 303 303 305 305 302 299 300 301 300 295 290 290 285 274 268 262 255 255 254 253 254 253 252 250 246 247 248 248
319 288 272 280 304 303 309 315 313 311 313 309 304 316 311 308 307 308 306 304 301 304 303 302 300 295 289 284 282 277 272 264 261 261 259 260 257 255 252 249 250 252 254
278 281 288 292 293 295 302 308 316 320 314 307 305 312 313 315 312 306 303 303 303 307 311 308 301 299 293 284 280 281 279 275 271 268 264 263 257 258 258 253 253 255 254
269 275 284 285 280 290 305 309 309 315 315 311 310 315 317 317 315 309 305 303 304 306 306 302 301 300 296 294 296 288 277 271 273 270 264 262 264 268 264 259 257 254 252
265 268 274 274 269 274 287 298 303 311 310 304 306 314 313 315 313 312 308 306 306 305 305 302 303 301 298 306 304 299 281 275 272 274 269 266 259 260 263 263 262 257 253
262 262 266 268 267 266 268 273 285 295 293 293 298 304 304 308 312 313 308 307 305 305 302 302 298 296 300 307 309 306 291 279 274 275 274 269 268 268 265 264 262 261 261
262 262 263 266 266 263 258 260 261 263 270 280 288 296 300 303 304 304 306 309 307 307 306 305 303 299 305 313 310 309 293 279 275 276 276 274 276 274 275 272 271 268 268
261 260 258 258 256 253 246 238 247 254 259 268 280 292 295 293 296 300 302 305 305 307 307 306 305 300 303 311 312 309 294 286 285 283 282 282 281 284 285 275 273 275 277
258 257 256 252 246 245 231 229 245 252 258 267 275 282 282 282 285 292 298 298 293 294 301 304 304 301 301 310 311 308 296 294 294 291 286 283 285 294 294 280 271 271 276
261 261 253 251 250 242 224 231 244 254 268 277 278 279 278 278 279 285 287 290 289 290 296 299 300 299 300 304 308 308 298 293 292 291 294 296 301 294 292 289 279 276 280
268 268 267 273 268 243 229 237 250 268 278 276 276 278 282 284 281 281 283 283 285 287 290 294 298 298 296 299 305 305 300 297 288 290 294 297 305 302 295 291 292 293 288
276 278 266 278 277 255 242 249 265 275 270 271 274 280 285 285 280 277 278 280 280 280 286 288 292 299 300 299 297 297 297 296 291 293 297 298 299 298 294 296 298 296 286
276 270 265 269 278 278 267 262 267 258 249 257 270 277 279 285 285 280 272 272 271 274 277 282 286 291 292 294 297 296 295 290 287 288 289 288 287 287 288 292 295 292 289
271 263 260 266 273 281 279 277 263 243 241 253 263 270 273 276 283 282 281 277 272 275 275 278 278 284 287 294 300 298 299 301 301 298 294 290 286 287 288 289 289 290 291
268 262 261 260 266 274 278 278 261 239 237 247 254 259 266 273 278 284 293 290 279 289 284 282 282 284 284 291 293 293 293 293 288 285 281 282 281 281 283 284 286 285 283